Location: New Plymouth
(39.0670°S, 174.0830°E)
Time: 22:40:40
(UTC+12:00)

OTV 5 (USA 277) - Visible Passes

Search period start: 19 June 2019 00:00
Search period end: 29 June 2019 00:00
Orbit: 310 x 325 km, 54.5° (Epoch: 08 May)

Date Brightness Start Highest point End Pass type
(mag) Time Alt. Az. Time Alt. Az. Time Alt. Az.
19 Jun ? 17:52:40 10° SW 17:55:25 72° NW 17:58:09 10° NE visible
20 Jun ? 18:07:49 10° WSW 18:10:02 21° NW 18:12:13 10° N visible
26 Jun ? 06:58:24 10° N 07:00:12 16° NE 07:02:00 10° E visible
